Flag for China Weather past 2 weeks in Hangzhou, Zhejiang, China

Now
75 °F

Partly sunny.


Feels Like: 77 °F
Forecast: 69 / 74 °F
Wind: 15 mph from Northeast

Location: Hangzhou Airport

Current Time: Sep 21, 2014 at 10:21:00 AM

Latest Report: Sep 21, 2014 at 9:30 AM


Visibility: N/A

Pressure: 29.95 "Hg

Humidity: 74%

Dew point: 66 °F

Location of HangzhouLocation

Historic Weather in Hangzhou — Graph

°F

Hangzhou temperature yesterday

Maximum temperature yesterday: 79 °F (at 12:30 PM)
Minimum temperature yesterday: 66 °F (at 12:00 AM)
Average temperature yesterday: 72 °F

Past Weeks' High & Low Weather Summary

 TemperatureHumidityPressure
High91 °F (Sep 12, 2:00 PM)89% (Sep 10, 5:00 AM)30.01 "Hg (Sep 10, 5:00 AM)
Low63 °F (Sep 19, 8:00 AM)48% (Sep 7, 5:30 PM)29.68 "Hg (Sep 12, 2:30 PM)
Average76 °F76%29.87 "Hg
* Reported Sep 6 9:00 AM — Sep 21 9:00 AM, Hangzhou, Weather by CustomWeather, © 2014

Note: Actual official high and low records may vary slightly from our data, if they occured in-between our weather recording intervals... More about our weather records

Advertising

Hangzhou weather history for previous 24 hours

 ConditionsComfort  
Time TempWeatherWind HumidityBarometerVisibility
9:00 AM
Sep 21
73 °FBroken clouds.10 mph78%29.95 "HgN/A
8:30 AM73 °FBroken clouds.13 mph78%29.95 "HgN/A
8:00 AM73 °FScattered clouds.13 mph78%29.92 "Hg4 mi
7:30 AM72 °FScattered clouds.13 mph83%29.92 "Hg4 mi
7:00 AM72 °FFog.10 mph78%29.89 "Hg3 mi
6:30 AM70 °FFog.10 mph83%29.89 "Hg2 mi
6:00 AM72 °FFog.10 mph78%29.89 "Hg2 mi
5:30 AM72 °FFog.8 mph78%29.89 "Hg3 mi
5:00 AM70 °FFog.8 mph83%29.89 "Hg3 mi
4:30 AM70 °FFog.8 mph83%29.86 "Hg3 mi
4:00 AM70 °FFog.8 mph83%29.86 "Hg3 mi
3:30 AM72 °FFog.8 mph78%29.86 "Hg3 mi
3:00 AM72 °FFog.10 mph78%29.86 "Hg3 mi
2:30 AM70 °FFog.8 mph83%29.86 "Hg3 mi
2:00 AM72 °FPassing clouds.6 mph78%29.86 "Hg4 mi
1:30 AM72 °FPassing clouds.6 mph83%29.86 "Hg4 mi
9:30 PM
Sep 20
73 °FPassing clouds.3 mph74%29.89 "Hg2 mi
9:00 PM73 °FPassing clouds.3 mph74%29.89 "Hg2 mi
8:30 PM73 °FPassing clouds.3 mph74%29.89 "Hg3 mi
8:00 PM73 °FPassing clouds.3 mph74%29.89 "Hg3 mi
7:30 PM73 °FPassing clouds.3 mph69%29.86 "Hg3 mi
7:00 PM75 °FPassing clouds.3 mph65%29.86 "Hg4 mi
6:30 PM75 °FPassing clouds.3 mph65%29.86 "Hg4 mi
6:00 PM77 °FPassing clouds.6 mph61%29.86 "Hg4 mi
5:30 PM77 °FScattered clouds.6 mph57%29.83 "Hg4 mi
5:00 PM77 °FScattered clouds.6 mph57%29.83 "Hg5 mi
4:30 PM79 °FScattered clouds.6 mph54%29.83 "Hg5 mi
4:00 PM79 °FScattered clouds.3 mph51%29.83 "Hg5 mi
3:30 PM79 °FScattered clouds.3 mph54%29.83 "Hg5 mi
3:00 PM79 °FScattered clouds.6 mph51%29.83 "Hg5 mi
2:30 PM79 °FScattered clouds.6 mph51%29.83 "Hg5 mi
2:00 PM79 °FScattered clouds.8 mph51%29.83 "Hg5 mi
1:30 PM77 °FScattered clouds.6 mph54%29.86 "Hg5 mi
1:00 PM79 °FScattered clouds.8 mph51%29.86 "Hg4 mi
12:30 PM79 °FScattered clouds.8 mph51%29.86 "Hg4 mi
12:00 PM77 °FScattered clouds.8 mph51%29.86 "Hg4 mi
11:30 AM75 °FScattered clouds.8 mph61%29.89 "Hg4 mi
11:00 AM75 °FScattered clouds.6 mph65%29.89 "Hg4 mi
10:30 AM75 °FScattered clouds.8 mph65%29.89 "Hg4 mi
10:00 AM73 °FScattered clouds.8 mph69%29.92 "Hg4 mi
Weather by CustomWeather, © 2014

See weather overviewHow to use our weather pages